Flag for Canada Weather past 2 weeks in Inuvik, Northwest Territories, Canada

Now
0 °F

Overcast.


Feels Like: 0 °F
Forecast: -6 / 5 °F
Wind: No wind

Location: Inuvik

Current Time: Jan 31, 2015 at 5:11:49 AM

Latest Report: Jan 31, 2015 at 4:00 AM


Visibility: 15 mi

Pressure: 30.39 "Hg

Humidity: 71%

Dew point: -8 °F

Location of InuvikLocation

Historic Weather in Inuvik — Graph

°F

Inuvik temperature yesterday

Maximum temperature yesterday: -4 °F (at 2:00 PM)
Minimum temperature yesterday: -24 °F (at 12:00 AM)
Average temperature yesterday: -12 °F

Past Weeks' High & Low Weather Summary

 TemperatureHumidityPressure
High0 °F (Jan 17, 10:00 AM)84% (Jan 16, 4:00 AM)30.76 "Hg (Jan 16, 4:00 AM)
Low-29 °F (Jan 27, 1:00 AM)57% (Jan 26, 6:00 PM)29.34 "Hg (Jan 16, 4:00 AM)
Average-11 °F75%29.99 "Hg
* Reported Jan 16 4:00 AM — Jan 31 4:00 AM, Inuvik, Weather by CustomWeather, © 2014

Note: Actual official high and low records may vary slightly from our data, if they occured in-between our weather recording intervals... More about our weather records

Advertising

Inuvik weather history for previous 24 hours

 ConditionsComfort  
Time TempWeatherWind HumidityBarometerVisibility
4:00 AM
Jan 31
0 °FOvercast.No wind71%30.39 "Hg15 mi
3:00 AM-2 °FMostly cloudy.2 mph71%30.39 "Hg15 mi
2:00 AM-2 °FMostly cloudy.6 mph65%30.40 "Hg15 mi
1:55 AM-2 °FMostly cloudy.7 mph65%30.40 "Hg15 mi
1:00 AM-2 °FOvercast.8 mph71%30.41 "Hg20 mi
12:00 AM-4 °FOvercast.9 mph65%30.42 "Hg15 mi
11:00 PM
Jan 30
-6 °FOvercast.6 mph64%30.44 "Hg15 mi
10:00 PM-6 °FOvercast.8 mph64%30.45 "Hg15 mi
9:00 PM-6 °FPassing clouds.12 mph64%30.47 "Hg15 mi
8:00 PM-8 °FPassing clouds.10 mph64%30.48 "Hg15 mi
7:00 PM-8 °FPassing clouds.13 mph64%30.48 "Hg15 mi
6:00 PM-8 °FBroken clouds.No wind64%30.52 "Hg15 mi
5:00 PM-8 °FPartly sunny.6 mph58%30.54 "Hg15 mi
4:00 PM-4 °FPartly sunny.12 mph59%30.56 "Hg15 mi
3:00 PM-4 °FPartly sunny.16 mph59%30.59 "Hg15 mi
2:00 PM-4 °FLow level haze.10 mph59%30.61 "Hg15 mi
1:00 PM-6 °FClear.12 mph59%30.64 "Hg15 mi
12:00 PM-8 °FClear.12 mph58%30.66 "Hg15 mi
11:00 AM-9 °FClear.8 mph64%30.69 "Hg15 mi
10:00 AM-11 °FClear.6 mph70%30.70 "Hg15 mi
9:00 AM-13 °FClear.6 mph69%30.71 "Hg15 mi
8:00 AM-20 °FClear.3 mph68%30.72 "Hg15 mi
7:00 AM-18 °FClear.5 mph69%30.73 "Hg15 mi
6:00 AM-20 °FClear.3 mph68%30.74 "Hg15 mi
5:00 AM-17 °FClear.3 mph69%30.76 "Hg15 mi
Weather by CustomWeather, © 2014

See weather overviewHow to use our weather pages